Home   Weather   Virginia Beach   Past weeks

Flag for USA Past Weather in Virginia Beach, Virginia, USA — Yesterday and Last 2 Weeks

57 °F

Passing clouds.

Feels Like: 55 °F
Forecast: 51 / 62 °F
Wind: 9 mph from Northwest

Location: Virginia Beach - Oceana

Current Time: Oct 22, 2016 at 7:48:58 PM

Latest Report: Oct 22, 2016 at 6:56 PM

Visibility: 10 mi

Pressure: 29.83 "Hg

Humidity: 41%

Dew Point: 33 °F

Location of Virginia BeachLocation

Past Weather in Virginia Beach — Graph


Virginia Beach Temperature Yesterday

Maximum temperature yesterday: 81 °F (at 1:56 PM)
Minimum temperature yesterday: 60 °F (at 11:56 PM)
Average temperature yesterday: 71 °F

High & Low Weather Summary for the Past Weeks

High87 °F (Oct 19, 2:56 PM)100% (Oct 8, 6:56 PM)30.41 "Hg (Oct 8, 6:56 PM)
Low50 °F (Oct 11, 7:56 AM)23% (Oct 8, 11:56 PM)29.52 "Hg (Oct 21, 5:56 PM)
Average66 °F75%30.07 "Hg
* Reported Oct 7 5:56 PM — Oct 22 5:56 PM, Virginia Beach, Weather by CustomWeather, © 2016

Note: Actual official high and low records may vary slightly from our data, if they occured in-between our weather recording intervals... More about our weather records


Virginia Beach Weather History for the Previous 24 Hours

Scroll right to see more
Time TempWeatherWind HumidityBarometerVisibility
5:56 PM
Sat, Oct 22
60 °FPassing clouds.13 mph36%29.79 "Hg10 mi
4:56 PM62 °FPassing clouds.16 mph37%29.77 "Hg10 mi
3:56 PM63 °FPassing clouds.15 mph35%29.76 "Hg10 mi
2:56 PM62 °FPassing clouds.14 mph35%29.75 "Hg10 mi
1:56 PM62 °FPassing clouds.18 mph37%29.75 "Hg10 mi
12:56 PM62 °FPassing clouds.18 mph41%29.75 "Hg10 mi
11:56 AM61 °FPartly sunny.17 mph46%29.75 "Hg10 mi
10:56 AM58 °FPartly sunny.17 mph51%29.74 "Hg10 mi
9:56 AM56 °FPartly sunny.16 mph58%29.72 "Hg10 mi
8:56 AM56 °FPartly sunny.18 mph60%29.70 "Hg10 mi
7:56 AM55 °FMostly cloudy.18 mph64%29.67 "Hg10 mi
6:56 AM55 °FOvercast.12 mph67%29.64 "Hg10 mi
5:56 AM56 °FMostly cloudy.16 mph70%29.62 "Hg10 mi
4:56 AM57 °FMostly cloudy.26 mph69%29.58 "Hg10 mi
3:56 AM59 °FMostly cloudy.13 mph75%29.56 "Hg10 mi
2:56 AM59 °FMostly cloudy.18 mph78%29.55 "Hg10 mi
1:56 AM60 °FOvercast.13 mph83%29.55 "Hg10 mi
1:03 AM60 °FLight rain. Mostly cloudy.12 mph86%29.54 "Hg10 mi
12:56 AM60 °FLight rain. Mostly cloudy.9 mph86%29.55 "Hg10 mi
11:56 PM
Fri, Oct 21
60 °FLight rain. Mostly cloudy.10 mph90%29.55 "Hg10 mi
10:56 PM63 °FLight rain. Mostly cloudy.15 mph78%29.55 "Hg9 mi
9:56 PM65 °FLight rain. Overcast.14 mph70%29.54 "Hg10 mi
8:56 PM65 °FMostly cloudy.14 mph78%29.55 "Hg10 mi
7:56 PM69 °FMostly cloudy.21 mph76%29.54 "Hg10 mi
Weather by CustomWeather, © 2016

See weather overviewHow to use our weather pages